Regional Weather Roundup
Issued by NWS

Home | Current Version | Previous Version | Text Only | Print | Product List | Glossary On
Versions: 1 2 3 4 5 6 7 8 9 10 11 12 13 14 15 16 17 18 19 20 21 22 23 24 25 26 27 28 29 30 31 32 33 34 35 36 37 38 39 40 41 42 43 44 45 46 47 48 49 50
000
ASUS45 KPSR 070310
RWRAZ

ARIZONA HOURLY REGIONAL WEATHER ROUNDUP
NATIONAL WEATHER SERVICE PHOENIX AZ
800 PM MST MON JUL 06 2015

NOTE: FAIR INDICATES FEW OR NO CLOUDS BELOW 12,000 FEET WITH NO
SIGNIFICANT WEATHER AND/OR OBSTRUCTIONS TO VISIBILITY.

AZZ001>003-036-070400-
NORTHWEST ARIZONA

CITY           SKY/WX    TMP DP  RH WIND       PRES   REMARKS
BULLHEAD CITY  MOCLDY   100  55  22 CALM      29.78R
KINGMAN        MOCLDY    79  59  50 N3        30.03R
$$

AZZ004>008-015-016-018-070400-
NORTH CENTRAL ARIZONA

CITY           SKY/WX    TMP DP  RH WIND       PRES   REMARKS
GRAND CANYON   CLOUDY    63  50  62 NE3       30.25F
WILLIAMS       CLEAR     63  54  72 CALM      30.34S
PRESCOTT       CLEAR     74  53  48 N8        30.15R
FLAGSTAFF      CLEAR     65  51  60 NW5       30.30R
PAYSON         PTCLDY    77  54  44 W5        30.16R
PAGE           CLOUDY    75  54  47 NW6       30.10F
$$

AZZ009>014-017-070400-
NORTHEAST ARIZONA

CITY           SKY/WX    TMP DP  RH WIND       PRES   REMARKS
WINSLOW        PTCLDY    80  51  36 W7        30.12R
SAINT JOHNS    CLOUDY    81  45  28 W10       30.14R
WINDOW ROCK    MOCLDY    67  50  54 NW14      30.23S
SHOW LOW       MOCLDY    70  50  49 S7        30.23R
$$

AZZ023-070400-
GREATER PHOENIX AREA

CITY           SKY/WX    TMP DP  RH WIND       PRES   REMARKS
PHOENIX        MOCLDY   101  58  24 W9        29.80R HX 100
BUCKEYE        PTCLDY    93  64  38 S3        29.81R
GLENDALE       MOCLDY    97  54  23 W14       29.82R
LUKE AFB       MOCLDY    95  55  26 NW15G22   29.81R
DEER VALLEY    MOCLDY    95  56  26 NW10      29.84R
SCOTTSDALE     MOCLDY    98  55  23 W8G16     29.85R
MESA-FALCON    MOCLDY    97  57  26 SW9       29.82R
MESA-GATEWAY   PTCLDY    95  63  34 SW13      29.86R
CHANDLER       MOCLDY    95  63  34 S12       29.83R
$$

AZZ027-028-070400-
SOUTHWEST MARICOPA COUNTY AND PINAL COUNTY

CITY           SKY/WX    TMP DP  RH WIND       PRES   REMARKS
CASA GRANDE    CLOUDY    91  63  38 SW5       29.86R
GILA BEND      MOCLDY    92  58  31 SW13      29.80S
$$

AZZ503-504-507>509-070400-
SOUTHEAST ARIZONA

CITY           SKY/WX    TMP DP  RH WIND       PRES   REMARKS
TUCSON         CLOUDY    90  61  37 W6        29.97F
DAVIS-MONTHAN  DRIZZLE   86  64  48 NW5       29.96S
RYAN FIELD     CLEAR     90  63  40 CALM      29.96S
NOGALES        MOCLDY    70  64  81 S6        30.08S
SIERRA VISTA   MOCLDY    71  64  78 W10       30.13R
DOUGLAS        MOCLDY    71  63  75 E8        30.07R
SAFFORD        PTCLDY    88  57  34 NW13      29.94R
$$

AZZ020-021-025-026-031-070400-
SOUTHWEST ARIZONA

CITY           SKY/WX    TMP DP  RH WIND       PRES   REMARKS
YUMA           CLEAR     99  54  22 S8        29.77R
$$

CAZ031-033-041-043-047-048-061-070400-
SOUTHERN CALIFORNIA

CITY           SKY/WX    TMP DP  RH WIND       PRES   REMARKS
DOWNTOWN L.A.  CLOUDY    66  59  78 VRB3      29.97R
L.A. AIRPORT   CLOUDY    63  59  87 W10       29.99R
SAN DIEGO      CLOUDY    68  59  73 W8        30.01R
BURBANK        CLEAR     68  58  70 S8        29.96R
ONTARIO        PTCLDY    72  59  63 SW12      29.96R
RIVERSIDE        N/A    N/A N/A N/A MISG      29.95R
PALM SPRINGS   PTCLDY    98  58  26 NW14G22   29.79R
EL CENTRO NAS  PTCLDY    98  48  18 SE9       29.76R
IMPERIAL       CLEAR     99  46  16 SE10      29.73R
BLYTHE         PTCLDY   100  66  32 S8        29.74S HX 104
NEEDLES        MOCLDY   100  55  22 W5        29.79R
$$

NVZ020-UTZ003-070400-
SOUTHERN NEVADA-UTAH

CITY           SKY/WX    TMP DP  RH WIND       PRES   REMARKS
LAS VEGAS      TSTM      79  62  56 S12       29.93R
SALT LAKE CITY MOCLDY    79  55  43 S12       30.04S
$$

NMZ009-TXZ055-070400-
NEW MEXICO-WEST TEXAS

CITY           SKY/WX    TMP DP  RH WIND       PRES   REMARKS
ALBUQUERQUE    MOCLDY    74  56  53 E15       30.10R
EL PASO        PTCLDY    93  52  24 W14       29.93R
$$


........................KEY........................
SKY/WX - SKY CONDITION/WEATHER
TMP    - TEMPERATURE IN FAHRENHEIT
DP     - DEW POINT IN FAHRENHEIT
RH     - RELATIVE HUMIDITY IN PERCENT
WIND   - DIRECTION AND SPEED IN MILES PER HOUR (MPH)
VRB    - VARIABLE WIND DIRECTION
PRES   - MEAN SEA LEVEL PRESSURE IN INCHES OF MERCURY
         F - FALLING PRESSURE   R - RISING PRESSURE
         S - STEADY PRESSURE
VSB    - VISIBILITY IN MILES
HX     - HEAT INDEX IN FAHRENHEIT
WCI    - WIND CHILL INDEX IN FAHRENHEIT
TC     - TEMPERATURE IN CELSIUS WHICH IS ALSO KNOWN AS
         TEMPERATURE IN CENTIGRADE
AFB    - AIR FORCE BASE
         LUKE AFB IS LUKE AIR FORCE BASE
         DAVIS-MONTHAN IS DAVIS-MONTHAN AIR FORCE BASE
NAS    - NAVAL AIR STATION
         EL CENTRO NAS IS EL CENTRO NAVAL AIR STATION
N/A    - NOT AVAILABLE




USA.gov is the U.S. government's official web portal to all federal, state and local government web resources and services.